User: anonymous
Location: Ostrava
(49.8330°N, 18.2830°E)
Time: 23:55:25
(UTC+02:00)
Language:

Cosmos 1400 Rocket - Orbit

View from above orbital plane
View from above orbital plane
View from above satellite
View from above satellite

Ground track
Ground track

The orbit data is extracted from the following two-line orbital elements,

1 13403U 82079B   14273.44341736  .00002462  00000-0  17518-3 0  6835
2 13403 081.1714 322.5925 0034765 299.1795 060.5949 15.03829453747630
Epoch (UTC): 30 September 2014 10:38:31
Eccentricity: 0.0034765
inclination: 81.1714°
perigee height: 531 km
apogee height: 579 km
right ascension of ascending node: 322.5925°
argument of perigee: 299.1795°
revolutions per day: 15.03829453
mean anomaly at epoch: 60.5949°
orbit number at epoch: 74763

The dashed part of the orbit path shows where the satellite is in the earth's shadow,  

DLR